| time (UTC) | temp F | wind direction | speed MPH | gust MPH | rain 1hr in | rain 24hr in | rain mn in | humidity % | barometer mb |
| 20260505022755 | 69 | 356 | 0.0 | 1.0 | 0.00 | 0.00 | 0.00 | 71 | 1016.7 |
| 20260505022252 | 69 | 356 | 0.0 | 1.0 | 0.00 | 0.00 | 0.00 | 71 | 1016.5 |
| 20260505021749 | 69 | 15 | 1.0 | 2.0 | 0.00 | 0.00 | 0.00 | 71 | 1016.5 |
| 20260505021245 | 69 | 34 | 2.0 | 2.0 | 0.00 | 0.00 | 0.00 | 71 | 1016.8 |
| 20260505020741 | 69 | 157 | 2.0 | 3.0 | 0.00 | 0.00 | 0.00 | 70 | 1016.5 |
| 20260505020237 | 70 | 0 | 0.0 | 1.0 | 0.00 | 0.00 | 0.00 | 70 | 1016.3 |
| 20260505015734 | 69 | 341 | 0.0 | 2.0 | 0.00 | 0.00 | 0.00 | 69 | 1016.2 |
| 20260505015231 | 70 | 356 | 0.0 | 2.0 | 0.00 | 0.00 | 0.00 | 69 | 1016.2 |
| 20260505014728 | 70 | 350 | 0.0 | 1.0 | 0.00 | 0.00 | 0.00 | 69 | 1016.3 |
| 20260505014225 | 70 | 5 | 0.0 | 1.0 | 0.00 | 0.00 | 0.00 | 69 | 1016.3 |
| 20260505013722 | 70 | 4 | 0.0 | 1.0 | 0.00 | 0.00 | 0.00 | 68 | 1015.9 |
| 20260505013219 | 70 | 95 | 2.0 | 2.0 | 0.00 | 0.00 | 0.00 | 68 | 1016.0 |
| 20260505012717 | 70 | 337 | 0.0 | 4.0 | 0.00 | 0.00 | 0.00 | 67 | 1016.0 |
| 20260505012214 | 70 | 172 | 2.0 | 3.0 | 0.00 | 0.00 | 0.00 | 67 | 1015.9 |
| 20260505011710 | 71 | 73 | 1.0 | 3.0 | 0.00 | 0.00 | 0.00 | 67 | 1015.9 |
| 20260505011207 | 71 | 355 | 2.0 | 2.0 | 0.00 | 0.00 | 0.00 | 66 | 1015.9 |
| 20260505010702 | 71 | 41 | 1.0 | 3.0 | 0.00 | 0.00 | 0.00 | 66 | 1016.0 |
| 20260505010159 | 71 | 21 | 1.0 | 2.0 | 0.00 | 0.00 | 0.00 | 66 | 1015.8 |
| 20260505005655 | 71 | 359 | 0.0 | 1.0 | 0.00 | 0.00 | 0.00 | 65 | 1015.9 |
| 20260505005153 | 71 | 70 | 2.0 | 2.0 | 0.00 | 0.00 | 0.00 | 65 | 1015.8 |
| 20260505004649 | 71 | 4 | 1.0 | 2.0 | 0.00 | 0.00 | 0.00 | 64 | 1015.8 |
| 20260505004146 | 72 | 79 | 2.0 | 2.0 | 0.00 | 0.00 | 0.00 | 64 | 1015.7 |
| 20260505003643 | 72 | 15 | 1.0 | 3.0 | 0.00 | 0.00 | 0.00 | 64 | 1015.8 |
| 20260505003141 | 72 | 5 | 0.0 | 4.0 | 0.00 | 0.00 | 0.00 | 64 | 1015.7 |
| 20260505002637 | 72 | 117 | 2.0 | 4.0 | 0.00 | 0.00 | 0.00 | 63 | 1015.5 |
| 20260505002135 | 72 | 5 | 1.0 | 2.0 | 0.00 | 0.00 | 0.00 | 63 | 1015.5 |
| 20260505001632 | 73 | 15 | 1.0 | 2.0 | 0.00 | 0.00 | 0.00 | 62 | 1015.4 |
| 20260505001130 | 73 | 39 | 2.0 | 6.0 | 0.00 | 0.00 | 0.00 | 62 | 1015.3 |
| 20260505000627 | 73 | 4 | 2.0 | 4.0 | 0.00 | 0.00 | 0.00 | 62 | 1015.3 |
| 20260505000125 | 73 | 346 | 2.0 | 4.0 | 0.00 | 0.00 | 0.00 | 62 | 1015.3 |
| 20260504235620 | 73 | 57 | 1.0 | 2.0 | 0.00 | 0.00 | 0.00 | 61 | 1015.5 |
| 20260504235117 | 73 | 19 | 1.0 | 3.0 | 0.00 | 0.00 | 0.00 | 61 | 1015.4 |
| 20260504234614 | 74 | 356 | 1.0 | 4.0 | 0.00 | 0.00 | 0.00 | 60 | 1015.2 |
| 20260504234111 | 74 | 336 | 1.0 | 3.0 | 0.00 | 0.00 | 0.00 | 60 | 1014.7 |
| 20260504233607 | 74 | 21 | 0.0 | 4.0 | 0.00 | 0.00 | 0.00 | 59 | 1015.1 |
| 20260504233104 | 74 | 135 | 2.0 | 4.0 | 0.00 | 0.00 | 0.00 | 59 | 1015.1 |
| 20260504232601 | 75 | 14 | 3.0 | 7.0 | 0.00 | 0.00 | 0.00 | 58 | 1015.1 |
| 20260504232058 | 75 | 84 | 4.0 | 6.0 | 0.00 | 0.00 | 0.00 | 58 | 1015.1 |
| 20260504231555 | 75 | 128 | 3.0 | 4.0 | 0.00 | 0.00 | 0.00 | 57 | 1014.7 |
| 20260504231050 | 75 | 68 | 1.0 | 4.0 | 0.00 | 0.00 | 0.00 | 57 | 1015.1 |
| 20260504230547 | 75 | 58 | 3.0 | 4.0 | 0.00 | 0.00 | 0.00 | 57 | 1015.1 |
| 20260504230046 | 76 | 11 | 2.0 | 13.0 | 0.00 | 0.00 | 0.00 | 56 | 1014.9 |
| 20260504225543 | 76 | 75 | 3.0 | 7.0 | 0.00 | 0.00 | 0.00 | 55 | 1014.9 |
| 20260504225040 | 76 | 84 | 2.0 | 3.0 | 0.00 | 0.00 | 0.00 | 55 | 1015.0 |
| 20260504224536 | 77 | 68 | 3.0 | 7.0 | 0.00 | 0.00 | 0.00 | 54 | 1015.0 |
| 20260504224034 | 77 | 34 | 4.0 | 9.0 | 0.00 | 0.00 | 0.00 | 55 | 1015.0 |
| 20260504223530 | 77 | 128 | 5.0 | 11.0 | 0.00 | 0.00 | 0.00 | 55 | 1015.1 |
| 20260504223026 | 77 | 131 | 2.0 | 7.0 | 0.00 | 0.00 | 0.00 | 55 | 1014.9 |
| 20260504222523 | 77 | 317 | 3.0 | 13.0 | 0.00 | 0.00 | 0.00 | 54 | 1015.0 |
| 20260504222021 | 77 | 120 | 2.0 | 7.0 | 0.00 | 0.00 | 0.00 | 54 | 1014.8 |
| 20260504221518 | 77 | 57 | 3.0 | 4.0 | 0.00 | 0.00 | 0.00 | 53 | 1014.9 |
| 20260504221014 | 77 | 124 | 3.0 | 4.0 | 0.00 | 0.00 | 0.00 | 53 | 1014.9 |
| 20260504220511 | 77 | 119 | 6.0 | 7.0 | 0.00 | 0.00 | 0.00 | 54 | 1014.9 |
| 20260504220008 | 78 | 135 | 8.0 | 9.0 | 0.00 | 0.00 | 0.00 | 52 | 1015.0 |
| 20260504215505 | 78 | 140 | 4.0 | 7.0 | 0.00 | 0.00 | 0.00 | 52 | 1014.9 |
| 20260504215002 | 78 | 330 | 1.0 | 6.0 | 0.00 | 0.00 | 0.00 | 53 | 1014.8 |
| 20260504214458 | 78 | 204 | 2.0 | 3.0 | 0.00 | 0.00 | 0.00 | 53 | 1015.0 |
| 20260504213954 | 77 | 154 | 1.0 | 7.0 | 0.00 | 0.00 | 0.00 | 53 | 1014.8 |
| 20260504213450 | 77 | 103 | 4.0 | 6.0 | 0.00 | 0.00 | 0.00 | 53 | 1014.9 |
| 20260504212948 | 78 | 137 | 4.0 | 7.0 | 0.00 | 0.00 | 0.00 | 52 | 1014.6 |
| 20260504212443 | 78 | 21 | 1.0 | 8.0 | 0.00 | 0.00 | 0.00 | 52 | 1014.8 |
| 20260504211942 | 77 | 155 | 6.0 | 7.0 | 0.00 | 0.00 | 0.00 | 52 | 1014.8 |
| 20260504211437 | 78 | 112 | 8.0 | 13.0 | 0.00 | 0.00 | 0.00 | 51 | 1014.9 |
| 20260504210935 | 78 | 275 | 1.0 | 7.0 | 0.00 | 0.00 | 0.00 | 51 | 1014.9 |
| 20260504210432 | 78 | 129 | 4.0 | 8.0 | 0.00 | 0.00 | 0.00 | 51 | 1014.9 |
| 20260504205929 | 78 | 125 | 3.0 | 7.0 | 0.00 | 0.00 | 0.00 | 51 | 1015.0 |
| 20260504205427 | 80 | 27 | 2.0 | 8.0 | 0.00 | 0.00 | 0.00 | 50 | 1015.2 |
| 20260504204925 | 80 | 118 | 4.0 | 6.0 | 0.00 | 0.00 | 0.00 | 48 | 1015.1 |
| 20260504204423 | 79 | 158 | 3.0 | 7.0 | 0.00 | 0.00 | 0.00 | 50 | 1014.8 |
| 20260504203922 | 79 | 264 | 3.0 | 6.0 | 0.00 | 0.00 | 0.00 | 50 | 1014.9 |
| 20260504203419 | 79 | 6 | 5.0 | 10.0 | 0.00 | 0.00 | 0.00 | 49 | 1015.0 |
| 20260504202915 | 79 | 115 | 3.0 | 10.0 | 0.00 | 0.00 | 0.00 | 49 | 1014.9 |
| 20260504202412 | 78 | 355 | 2.0 | 2.0 | 0.00 | 0.00 | 0.00 | 51 | 1015.1 |
| 20260504201908 | 80 | 132 | 8.0 | 9.0 | 0.00 | 0.00 | 0.00 | 49 | 1015.1 |
| 20260504201406 | 79 | 136 | 3.0 | 6.0 | 0.00 | 0.00 | 0.00 | 49 | 1015.0 |
| 20260504200903 | 79 | 150 | 6.0 | 10.0 | 0.00 | 0.00 | 0.00 | 50 | 1015.2 |
| 20260504200359 | 79 | 291 | 3.0 | 10.0 | 0.00 | 0.00 | 0.00 | 50 | 1015.2 |
| 20260504195856 | 80 | 122 | 5.0 | 10.0 | 0.00 | 0.00 | 0.00 | 49 | 1015.5 |
| 20260504195351 | 80 | 21 | 2.0 | 6.0 | 0.00 | 0.00 | 0.00 | 49 | 1015.6 |
| 20260504194849 | 80 | 306 | 1.0 | 4.0 | 0.00 | 0.00 | 0.00 | 50 | 1015.6 |
| 20260504194344 | 80 | 158 | 2.0 | 9.0 | 0.00 | 0.00 | 0.00 | 49 | 1015.3 |
| 20260504193840 | 81 | 97 | 6.0 | 9.0 | 0.00 | 0.00 | 0.00 | 48 | 1015.5 |
| 20260504193338 | 79 | 359 | 4.0 | 7.0 | 0.00 | 0.00 | 0.00 | 49 | 1015.8 |
| 20260504192837 | 81 | 136 | 7.0 | 14.0 | 0.00 | 0.00 | 0.00 | 48 | 1015.6 |
| 20260504192334 | 80 | 159 | 2.0 | 7.0 | 0.00 | 0.00 | 0.00 | 48 | 1015.6 |
| 20260504191832 | 81 | 41 | 1.0 | 10.0 | 0.00 | 0.00 | 0.00 | 47 | 1015.8 |
| 20260504191330 | 81 | 20 | 6.0 | 9.0 | 0.00 | 0.00 | 0.00 | 48 | 1015.9 |
| 20260504190825 | 80 | 34 | 9.0 | 11.0 | 0.00 | 0.00 | 0.00 | 47 | 1015.9 |
| 20260504190321 | 80 | 4 | 1.0 | 8.0 | 0.00 | 0.00 | 0.00 | 49 | 1016.0 |
| 20260504185818 | 81 | 356 | 3.0 | 8.0 | 0.00 | 0.00 | 0.00 | 51 | 1016.1 |
| 20260504185315 | 81 | 72 | 7.0 | 11.0 | 0.00 | 0.00 | 0.00 | 47 | 1016.3 |
| 20260504184811 | 81 | 57 | 9.0 | 11.0 | 0.00 | 0.00 | 0.00 | 47 | 1016.0 |
| 20260504184307 | 79 | 77 | 2.0 | 7.0 | 0.00 | 0.00 | 0.00 | 49 | 1016.4 |
| 20260504183803 | 79 | 158 | 3.0 | 4.0 | 0.00 | 0.00 | 0.00 | 50 | 1016.5 |
| 20260504183300 | 80 | 34 | 2.0 | 4.0 | 0.00 | 0.00 | 0.00 | 48 | 1016.4 |
| 20260504182758 | 80 | 267 | 2.0 | 3.0 | 0.00 | 0.00 | 0.00 | 50 | 1016.4 |
| 20260504182255 | 78 | 161 | 5.0 | 9.0 | 0.00 | 0.00 | 0.00 | 49 | 1016.4 |
| 20260504181753 | 78 | 338 | 3.0 | 9.0 | 0.00 | 0.00 | 0.00 | 51 | 1016.3 |
| 20260504181249 | 79 | 136 | 6.0 | 10.0 | 0.00 | 0.00 | 0.00 | 48 | 1016.6 |
| 20260504180749 | 79 | 51 | 4.0 | 6.0 | 0.00 | 0.00 | 0.00 | 47 | 1016.5 |
| 20260504180247 | 80 | 17 | 4.0 | 7.0 | 0.00 | 0.00 | 0.00 | 47 | 1016.6 |
| 20260504175744 | 81 | 87 | 4.0 | 8.0 | 0.00 | 0.00 | 0.00 | 48 | 1016.6 |
| 20260504175241 | 81 | 84 | 1.0 | 7.0 | 0.00 | 0.00 | 0.00 | 47 | 1016.6 |
| 20260504174739 | 81 | 69 | 3.0 | 9.0 | 0.00 | 0.00 | 0.00 | 48 | 1016.6 |
| 20260504174237 | 81 | 49 | 1.0 | 4.0 | 0.00 | 0.00 | 0.00 | 50 | 1016.6 |
| 20260504173732 | 80 | 165 | 1.0 | 7.0 | 0.00 | 0.00 | 0.00 | 48 | 1016.7 |
| 20260504173230 | 79 | 122 | 6.0 | 13.0 | 0.00 | 0.00 | 0.00 | 49 | 1016.8 |
| 20260504172726 | 79 | 152 | 4.0 | 4.0 | 0.00 | 0.00 | 0.00 | 49 | 1016.9 |
| 20260504172223 | 81 | 157 | 5.0 | 9.0 | 0.00 | 0.00 | 0.00 | 48 | 1016.9 |
| 20260504171720 | 82 | 15 | 3.0 | 6.0 | 0.00 | 0.00 | 0.00 | 45 | 1016.6 |
| 20260504171217 | 81 | 139 | 4.0 | 6.0 | 0.00 | 0.00 | 0.00 | 44 | 1016.9 |
| 20260504170713 | 80 | 147 | 5.0 | 7.0 | 0.00 | 0.00 | 0.00 | 46 | 1016.8 |
| 20260504170211 | 81 | 58 | 1.0 | 8.0 | 0.00 | 0.00 | 0.00 | 45 | 1016.9 |
| 20260504160129 | 79 | 1 | 2.0 | 4.0 | 0.00 | 0.00 | 0.00 | 46 | 1017.5 |
| 20260504151056 | 79 | 2 | 2.0 | 3.0 | 0.00 | 0.00 | 0.00 | 41 | 1017.9 |
| 20260504150554 | 80 | 159 | 3.0 | 6.0 | 0.00 | 0.00 | 0.00 | 41 | 1017.8 |
| 20260504130713 | 74 | 28 | 1.0 | 2.0 | 0.00 | 0.00 | 0.00 | 61 | 1017.2 |
| 20260504130209 | 74 | 323 | 1.0 | 3.0 | 0.00 | 0.00 | 0.00 | 63 | 1017.3 |
| 20260504120133 | 63 | 355 | 0.0 | 1.0 | 0.00 | 0.00 | 0.00 | 88 | 1016.7 |
| 20260504110600 | 59 | 347 | 0.0 | 0.0 | 0.00 | 0.00 | 0.00 | 93 | 1016.6 |
| 20260504100522 | 59 | 350 | 0.0 | 0.0 | 0.00 | 0.00 | 0.00 | 92 | 1016.0 |
| 20260504081915 | 61 | 349 | 0.0 | 0.0 | 0.00 | 0.00 | 0.00 | 88 | 1016.1 |
| 20260504081412 | 62 | 349 | 0.0 | 0.0 | 0.00 | 0.00 | 0.00 | 87 | 1015.9 |
| 20260504080908 | 62 | 349 | 0.0 | 0.0 | 0.00 | 0.00 | 0.00 | 86 | 1015.9 |
| 20260504080405 | 62 | 349 | 0.0 | 0.0 | 0.00 | 0.00 | 0.00 | 86 | 1016.0 |
| 20260504070333 | 64 | 348 | 0.0 | 0.0 | 0.00 | 0.00 | 0.00 | 80 | 1016.0 |
| 20260504050721 | 68 | 4 | 0.0 | 1.0 | 0.00 | 0.00 | 0.00 | 72 | 1017.2 |
| 20260504050218 | 68 | 346 | 0.0 | 0.0 | 0.00 | 0.00 | 0.00 | 73 | 1017.1 |
| 20260504045715 | 68 | 357 | 0.0 | 1.0 | 0.00 | 0.00 | 0.00 | 73 | 1017.2 |
| 20260504045209 | 68 | 348 | 0.0 | 0.0 | 0.00 | 0.00 | 0.00 | 72 | 1017.3 |
| 20260504044707 | 68 | 350 | 0.0 | 0.0 | 0.00 | 0.00 | 0.00 | 72 | 1017.4 |
| 20260504044204 | 68 | 348 | 0.0 | 0.0 | 0.00 | 0.00 | 0.00 | 72 | 1017.4 |
| 20260504043701 | 68 | 357 | 0.0 | 0.0 | 0.00 | 0.00 | 0.00 | 71 | 1017.3 |
| 20260504043158 | 68 | 347 | 0.0 | 0.0 | 0.00 | 0.00 | 0.00 | 71 | 1017.2 |
| 20260504042655 | 68 | 8 | 1.0 | 1.0 | 0.00 | 0.00 | 0.00 | 71 | 1017.4 |
| 20260504042152 | 68 | 355 | 0.0 | 1.0 | 0.00 | 0.00 | 0.00 | 71 | 1017.5 |
| 20260504041648 | 68 | 356 | 0.0 | 0.0 | 0.00 | 0.00 | 0.00 | 71 | 1017.2 |
| 20260504041144 | 69 | 325 | 0.0 | 1.0 | 0.00 | 0.00 | 0.00 | 71 | 1017.3 |
| 20260504040641 | 69 | 354 | 0.0 | 0.0 | 0.00 | 0.00 | 0.00 | 71 | 1017.4 |
| 20260504040138 | 69 | 357 | 0.0 | 0.0 | 0.00 | 0.00 | 0.00 | 71 | 1017.7 |
| 20260504035634 | 69 | 349 | 0.0 | 0.0 | 0.00 | 0.04 | 0.04 | 71 | 1017.5 |
| 20260504035131 | 69 | 4 | 0.0 | 1.0 | 0.00 | 0.04 | 0.04 | 71 | 1017.8 |
| 20260504034629 | 69 | 357 | 0.0 | 1.0 | 0.00 | 0.04 | 0.04 | 71 | 1017.5 |
| 20260504034126 | 69 | 352 | 0.0 | 0.0 | 0.00 | 0.04 | 0.04 | 71 | 1017.7 |
| 20260504033624 | 69 | 340 | 0.0 | 1.0 | 0.00 | 0.04 | 0.04 | 71 | 1017.5 |
| 20260504033121 | 69 | 353 | 0.0 | 1.0 | 0.00 | 0.04 | 0.04 | 71 | 1017.5 |
| 20260504032618 | 69 | 345 | 1.0 | 2.0 | 0.00 | 0.04 | 0.04 | 71 | 1017.3 |
| 20260504032114 | 69 | 352 | 0.0 | 1.0 | 0.00 | 0.04 | 0.04 | 71 | 1017.4 |
| 20260504031612 | 69 | 2 | 1.0 | 2.0 | 0.00 | 0.04 | 0.04 | 71 | 1017.3 |
| 20260504031108 | 69 | 2 | 1.0 | 2.0 | 0.00 | 0.04 | 0.04 | 71 | 1017.6 |
| 20260504030605 | 69 | 345 | 0.0 | 0.0 | 0.00 | 0.04 | 0.04 | 71 | 1017.5 |
| 20260504030101 | 69 | 6 | 0.0 | 1.0 | 0.00 | 0.04 | 0.04 | 71 | 1017.5 |
| 20260504025558 | 69 | 350 | 0.0 | 1.0 | 0.00 | 0.04 | 0.04 | 71 | 1017.7 |
| 20260504025055 | 69 | 353 | 0.0 | 1.0 | 0.00 | 0.04 | 0.04 | 70 | 1017.4 |
| 20260504024552 | 69 | 338 | 0.0 | 1.0 | 0.00 | 0.04 | 0.04 | 70 | 1017.5 |
| 20260504024049 | 69 | 341 | 0.0 | 0.0 | 0.00 | 0.04 | 0.04 | 70 | 1017.6 |
| 20260504023545 | 69 | 351 | 0.0 | 1.0 | 0.00 | 0.04 | 0.04 | 69 | 1017.3 |
| 20260504023041 | 69 | 354 | 0.0 | 1.0 | 0.00 | 0.04 | 0.04 | 69 | 1017.3 |